Voltar ao catálogo

AEHF 6

USA 298

AtivoMilitarGEO
NORAD 45465·PAYLOAD·🇺🇸 United States

Lançado Mar 26, 2020 de Cape Canaveral Space Force Station

Loading…

TLE

AtualizadoSource: Space-Track

Época: Sep 14, 2026, 12:44 UTC

1 45465U 20022B   26257.53119539 -.00000307  00000-0  00000-0 0  9999
2 45465   2.3632 302.4860 0042243  10.8907   9.1081  1.00270332 23917

Acompanhe AEHF 6 em tempo real com AllMySat

Download on the App Store